GAOFEN 9 DEB, 44600

Orbit data source: Space-Track

GAOFEN 9 DEB, 44600 is space debris in SSO originally from a launch on Mon, 14 Sep 2015 UTC launched from the Jiuquan Satellite Launch Center, China (JSC). Debris objects in space refer to the collection of defunct objects orbiting the Earth. Examples of debris include non-operational satellites, rocket bodies, and fragments generated from explosions, collisions, or faulty payload assembly.

Loading next visibility...
GAOFEN 9 DEB details
Identifier
44600, 2015-047B
Orbit
SSO
Last TLE update15 hours ago
Origin
Flag of CNCASC (CN / PRC)
ManufacturerUnknown
MissionSpacecraft
Bus & MotorUnknown
MassUnknown
Launch date (UTC)
2015-09-14 (9 years ago)
Launch vehicleUnknown
Launch site
Jiuquan Satellite Launch Center, China (JSC)
Object type
Payload
Rocket body
Debris
Shape & HBRUnknown
Radar Cross SectionSmall (<0.1 m²)

Expand to show TLE details & history

TLE from 15 hours ago
0 GAOFEN 9 DEB
1 44600U 15047B   24347.76556459  .00009768  00000-0  19432-2 0  9999
2 44600  98.1145 277.2350 0168974 347.6552  12.0528 14.53569017485519
Epoch: 2024-12-12T18:22Z
Definitive object data (Epoch: 2024-12-12T18:22:24.78Z)
Latitude-0.00006°
Longitude-80.30944°
Altitude599.865 km
Speed7.622 km/s
True Right ascension18h 28m 56s
True Declination0° 00' 00"
Sunlit
Object was in daylight at TLE epoch
Visualization TLE readout
Latitude-67.91426°
Longitude-59.2659°
Altitude669.467 km
Speed7.558 km/s
Apparent Right ascension19h 35m 19s
Apparent Declination-54° 30' 33"
Sunlit
Object is in daylight
Visualization observer readout
Local Sidereal Time07:25:40
Azimuth185.529° SSW
Elevation-75.317°
Doppler factor1
Orbital elements
Apogee altitude830.89 km
Perigee altitude591.311 km
Semi-major axis7,089.237 km
Eccentricity0.0168974
Inclination98.1145°
RAAN277.235°
Arg. of periapsis347.6552°
True anomaly12.46564°
Mean anomaly12.0528°
Eccentric anomaly12.25836°
Mean motion3.63617 °/min
BSTAR0.0019432
Orbital period99.01 mins
Loading maneuver chart data...
Loading historical data...
Loading historical data...
Loading historical data...
Loading historical data...
Loading historical data...
Loading historical data...
Loading historical data...
Other satellites on launch #47 in the year 2015 (2015-09-14 UTC)

GAOFEN 9 DEB Visibility forecast

Observer location: undefined°, undefined

Span
Click to sort rows by Start time (UTC) header in descending order
Start Az.
Max El. time (UTC)
Max El. Az.
Max El.
End time (UTC)
End Az.
5 mins2024-12-13 09:48:59.509Z325.951° NNW2024-12-13 09:50:59.509Z300.947° NW16.205°2024-12-13 09:53:59.509Z263.949° W
6 mins2024-12-13 19:17:59.509Z146.662° SSE2024-12-13 19:19:59.509Z92.893° ESE41.414°2024-12-13 19:23:59.509Z355.337° N
7 mins2024-12-14 07:18:59.509Z52.517° ENE2024-12-14 07:21:59.509Z93.269° ESE20.637°2024-12-14 07:25:59.509Z142.431° SSE
|